Weather History for Amsterdam, Netherlands

Change the Weather History Date:

Wednesday, February 12, 2014

  Actual Average Record
Temperature  
Mean Temperature 40 °F -  
Max Temperature 47 °F 45 °F 57 °F (2008)
Min Temperature 34 °F 35 °F 14 °F (2012)
Degree Days  
Heating Degree Days 24    
Moisture  
Dew Point 37 °F    
Average Humidity 81    
Maximum Humidity 100    
Minimum Humidity 48    
Precipitation  
Precipitation 0.01 in - - ()
Sea Level Pressure  
Sea Level Pressure 29.51 in    
Wind  
Wind Speed 15 mph ()    
Max Wind Speed 36 mph    
Max Gust Speed 45 mph    
Visibility 7.9 miles    
Events Rain    
Averages and records for this station are not official NWS values.
T = Trace of Precipitation, MM = Missing Value Source: Averaged Metar Reports

Daily Weather History Graph

Daily Weather History Graph

Search for Another Location

Airport:

Trip Planner

Search our weather history database for the weather conditions in past years. The results will help you decide how hot, cold, wet, or windy it might be!

Date:

Astronomy

Feb. 12, 2014 Rise Set
Actual Time 8:02 AM CET 5:48 PM CET
Civil Twilight 7:27 AM CET 6:23 PM CET
Nautical Twilight 6:47 AM CET 7:03 PM CET
Astronomical Twilight 6:07 AM CET 7:43 PM CET
Moon 3:41 PM CET (2/12) 6:17 AM CET (2/12)
Length of Visible Light 10h 56m
Length of Day
9h 45m
Waxing Gibbous, 94% of the Moon is Illuminated
Feb 12
Waxing Gibbous
Feb 15
Full
Feb 22
Last Quarter
Mar 1
New
Mar 8
First Quarter

Hourly Weather History & Observations

Time (CET) Temp. Windchill Dew Point Humidity Pressure Visibility Wind Dir Wind Speed Gust Speed Precip Events Conditions
12:00 AM 36 °F - 36 °F 98% 29.55 in 10 mi SSW 11.2 mph - -  
12:25 AM 35.6 °F 29.2 °F 35.6 °F 100% 29.53 in 6.2 mi SSW 8.1 mph - N/A   Partly Cloudy
12:55 AM 37.4 °F 29.3 °F 35.6 °F 93% 29.53 in 6.2 mi SSW 12.7 mph - N/A   Partly Cloudy
1:00 AM 38 °F - 36 °F 88% 29.55 in 14 mi SSW 11.2 mph - -   Unknown Precipitation
1:25 AM 39.2 °F 31.6 °F 35.6 °F 87% 29.53 in 6.2 mi SSW 12.7 mph - N/A   Partly Cloudy
1:55 AM 37.4 °F 29.8 °F 37.4 °F 100% 29.53 in - SSW 11.5 mph - N/A   Clear
2:00 AM 38 °F - 37 °F 93% 29.57 in 10 mi SSW 11.2 mph - - Rain Rain
2:25 AM 39.2 °F 31.6 °F 37.4 °F 93% 29.56 in - SSW 12.7 mph - N/A   Clear
2:55 AM 39.2 °F 31.6 °F 37.4 °F 93% 29.56 in 5.0 mi SSW 12.7 mph - N/A Rain Light Rain Showers
3:00 AM 39 °F - 38 °F 92% 29.58 in 6 mi SSW 13.4 mph - - Rain Heavy Rain
3:25 AM 41.0 °F 33.9 °F 37.4 °F 87% 29.56 in 6.2 mi SSW 12.7 mph - N/A   Scattered Clouds
3:55 AM 39.2 °F 30.2 °F 35.6 °F 87% 29.56 in 6.2 mi SW 17.3 mph - N/A   Partly Cloudy
4:00 AM 39 °F - 36 °F 86% 29.60 in 16 mi SW 15.7 mph - - Rain Rain
4:25 AM 37.4 °F 29.8 °F 35.6 °F 93% 29.59 in 6.2 mi SW 11.5 mph - N/A   Partly Cloudy
4:55 AM 37.4 °F 30.8 °F 35.6 °F 93% 29.59 in 6.2 mi SSW 9.2 mph - N/A   Partly Cloudy
5:00 AM 38 °F - 36 °F 89% 29.62 in 14 mi SW 8.9 mph - -   Partly Cloudy
5:25 AM 39.2 °F 31.6 °F 35.6 °F 87% 29.59 in 6.2 mi SSW 12.7 mph - N/A   Partly Cloudy
5:55 AM 39.2 °F 31.6 °F 35.6 °F 87% 29.62 in 6.2 mi SSW 12.7 mph - N/A   Partly Cloudy
6:00 AM 38 °F - 36 °F 89% 29.64 in 13 mi SSW 13.4 mph - -   Partly Cloudy
6:25 AM 37.4 °F 29.8 °F 35.6 °F 93% 29.62 in 6.2 mi SSW 11.5 mph - N/A   Partly Cloudy
6:55 AM 37.4 °F 30.3 °F 35.6 °F 93% 29.62 in - SSW 10.4 mph - N/A   Clear
7:00 AM 36 °F - 35 °F 93% 29.65 in 12 mi SSW 11.2 mph - -   Partly Cloudy
7:25 AM 37.4 °F 30.3 °F 35.6 °F 93% 29.62 in 6.2 mi SSW 10.4 mph - N/A   Partly Cloudy
7:55 AM 37.4 °F 29.8 °F 35.6 °F 93% 29.65 in 6.2 mi SSW 11.5 mph - N/A   Partly Cloudy
8:00 AM 38 °F - 36 °F 87% 29.66 in 12 mi SSW 11.2 mph - -   Overcast
8:25 AM 37.4 °F 29.8 °F 35.6 °F 93% 29.65 in 6.2 mi SSW 11.5 mph - N/A   Partly Cloudy
8:55 AM 37.4 °F 28.5 °F 35.6 °F 93% 29.65 in 6.2 mi SSW 15.0 mph - N/A   Partly Cloudy
9:00 AM 38 °F - 36 °F 88% 29.66 in 12 mi SSW 15.7 mph - -  
9:25 AM 39.2 °F 30.8 °F 35.6 °F 87% 29.65 in 6.2 mi SSW 15.0 mph - N/A   Partly Cloudy
9:55 AM 39.2 °F 29.8 °F 37.4 °F 93% 29.65 in 6.2 mi South 18.4 mph - N/A   Partly Cloudy
10:00 AM 40 °F - 37 °F 86% 29.66 in 13 mi SSW 17.9 mph - -   Partly Cloudy
10:25 AM 41.0 °F 31.9 °F 37.4 °F 87% 29.65 in 6.2 mi SSW 19.6 mph - N/A   Partly Cloudy
10:55 AM 41.0 °F 31.9 °F 37.4 °F 87% 29.62 in 6.2 mi South 19.6 mph - N/A   Partly Cloudy
11:00 AM 42 °F - 38 °F 79% 29.64 in 14 mi South 15.7 mph - -   Overcast
11:25 AM 42.8 °F 34.3 °F 39.2 °F 87% 29.62 in 6.2 mi SSW 19.6 mph - N/A   Partly Cloudy
11:55 AM 44.6 °F 36.6 °F 39.2 °F 81% 29.62 in 6.2 mi SSW 19.6 mph - N/A   Partly Cloudy
12:00 PM 46 °F - 38 °F 67% 29.63 in 13 mi SSW 22.4 mph - -   Mostly Cloudy
12:25 PM 46.4 °F 38.5 °F 37.4 °F 71% 29.59 in 6.2 mi SSW 21.9 mph - N/A   Partly Cloudy
12:55 PM 46.4 °F 38.3 °F 37.4 °F 71% 29.59 in 6.2 mi SSW 23.0 mph - N/A   Partly Cloudy
1:00 PM 47 °F - 37 °F 59% 29.59 in 18 mi SSW 24.6 mph - -   Partly Cloudy
1:25 PM 48.2 °F - 37.4 °F 66% 29.56 in 6.2 mi SSW 21.9 mph - N/A   Partly Cloudy
1:55 PM 48.2 °F - 37.4 °F 66% 29.56 in 6.2 mi SSW 23.0 mph - N/A   Partly Cloudy
2:00 PM 47 °F - 37 °F 59% 29.57 in 17 mi SSW 24.6 mph - -   Scattered Clouds
2:25 PM 48.2 °F - 37.4 °F 66% 29.53 in 6.2 mi South 26.5 mph - N/A   Partly Cloudy
2:55 PM 46.4 °F 38.3 °F 37.4 °F 71% 29.50 in 6.2 mi South 23.0 mph 34.5 mph N/A   Partly Cloudy
3:00 PM 46 °F - 37 °F 62% 29.52 in 17 mi South 17.9 mph - -   Partly Cloudy
3:25 PM 46.4 °F 39.0 °F 37.4 °F 71% 29.47 in 6.2 mi South 19.6 mph - N/A   Partly Cloudy
3:55 PM 46.4 °F 39.0 °F 35.6 °F 66% 29.47 in 6.2 mi South 19.6 mph - N/A   Partly Cloudy
4:00 PM 46 °F - 35 °F 56% 29.47 in 22 mi South 17.9 mph - -   Scattered Clouds
4:25 PM 46.4 °F 38.5 °F 33.8 °F 62% 29.44 in - South 21.9 mph - N/A   Clear
4:55 PM 46.4 °F 38.5 °F 33.8 °F 62% 29.42 in - South 21.9 mph - N/A   Clear
5:00 PM 46 °F - 34 °F 52% 29.42 in 25 mi South 20.1 mph - -   Overcast
5:25 PM 46.4 °F 37.9 °F 32.0 °F 57% 29.39 in - South 25.3 mph - N/A   Clear
5:55 PM 46.4 °F 37.9 °F 32.0 °F 57% 29.36 in - South 25.3 mph 38.0 mph N/A   Clear
6:00 PM 46 °F - 33 °F 48% 29.37 in 25 mi South 24.6 mph - -   Overcast
6:25 PM 46.4 °F 37.5 °F 33.8 °F 62% 29.36 in 6.2 mi South 27.6 mph 39.1 mph N/A Rain Light Rain
6:55 PM 42.8 °F 32.1 °F 37.4 °F 81% 29.33 in 6.2 mi South 31.1 mph 43.7 mph N/A Rain Light Rain
7:00 PM 43 °F - 37 °F 72% 29.36 in 5 mi South 35.8 mph - - Rain Light Rain Showers
7:25 PM 42.8 °F 32.3 °F 37.4 °F 81% 29.33 in 4.3 mi South 29.9 mph 44.9 mph N/A Rain Rain
7:55 PM 41.0 °F 30.0 °F 39.2 °F 93% 29.33 in 6.2 mi South 28.8 mph - N/A Rain Light Rain
8:00 PM 42 °F - 38 °F 82% 29.34 in 7 mi South 26.8 mph - - Rain Light Rain
8:25 PM 41.0 °F 30.5 °F 39.2 °F 93% 29.30 in 6.2 mi South 26.5 mph 38.0 mph N/A Rain Light Rain
8:55 PM 41.0 °F 30.5 °F 39.2 °F 93% 29.30 in 6.2 mi South 26.5 mph - N/A Rain Light Rain
9:00 PM 42 °F - 39 °F 86% 29.32 in 6 mi South 26.8 mph - - Rain Light Rain
9:25 PM 42.8 °F 32.7 °F 39.2 °F 87% 29.30 in 6.2 mi South 27.6 mph - N/A   Mostly Cloudy
9:55 PM 42.8 °F 32.5 °F 39.2 °F 87% 29.27 in 6.2 mi South 28.8 mph - N/A   Mostly Cloudy
10:00 PM 43 °F - 38 °F 78% 29.29 in 25 mi South 29.1 mph - - Rain Rain
10:25 PM 42.8 °F 32.7 °F 39.2 °F 87% 29.27 in 6.2 mi South 27.6 mph 39.1 mph N/A   Scattered Clouds
10:55 PM 42.8 °F 32.5 °F 39.2 °F 87% 29.27 in 6.2 mi SSW 28.8 mph 42.6 mph N/A Rain Light Rain Showers
11:00 PM 42 °F - 39 °F 87% 29.28 in 4 mi SSW 26.8 mph - - Rain Light Rain Showers
11:25 PM 42.8 °F 33.3 °F 39.2 °F 87% 29.27 in 6.2 mi South 24.2 mph - N/A   Scattered Clouds
11:55 PM 42.8 °F 33.3 °F 39.2 °F 87% 29.27 in 6.2 mi SSW 24.2 mph - N/A   Partly Cloudy